Regional Weather Roundup
Issued by NWS Little Rock, AR

Home | Current Version | Previous Version | Graphics & Text | Print | Product List | Glossary On
Versions: 1 2 3 4 5 6 7 8 9 10 11 12 13 14 15 16 17 18 19 20 21 22 23 24 25 26 27
000
ASUS44 KLZK 172205
RWRLZK

WEATHER ROUNDUP FOR ARKANSAS
NATIONAL WEATHER SERVICE LITTLE ROCK AR
500 PM CDT THU APR 17 2014

NOTE: "FAIR" INDICATES FEW OR NO CLOUDS BELOW 12,000 FEET WITH NO
SIGNIFICANT WEATHER AND/OR OBSTRUCTIONS TO VISIBILITY.

ARZ001-003-010-029-172300-
NORTHWEST ARKANSAS

CITY           SKY/WX    TMP DP  RH WIND       PRES   REMARKS
FAYETTEVILLE   MOSUNNY   64  41  42 NW6       30.18S
FORT SMITH     CLOUDY    69  38  32 NE8       30.17S
HARRISON       SUNNY     68  32  26 E6        30.18S
BENTONVILLE    PTSUNNY   64  36  34 CALM      30.20S
ROGERS         PTSUNNY   65  37  35 N7        30.19F
SILOAM SPGS    CLOUDY    64  39  39 NW8       30.20S
HIGHFILL       PTSUNNY   66  33  29 CALM      30.18F
SPRINGDALE     PTSUNNY   64  36  34 N9        30.19F
$$

ARZ004-005-016-172300-
NORTH CENTRAL ARKANSAS

CITY           SKY/WX    TMP DP  RH WIND       PRES   REMARKS
BATESVILLE     MOSUNNY   68  39  34 NE8       30.18S
FLIPPIN        MOSUNNY   70  36  28 N9        30.18S
MTN HOME       MOSUNNY   69  30  23 NE6       30.17S
$$

ARZ040-041-172300-
WEST CENTRAL ARKANSAS

CITY           SKY/WX    TMP DP  RH WIND       PRES   REMARKS
MENA           CLOUDY    70  36  28 CALM      30.16R
MOUNT IDA      CLOUDY    68  37  32 E5        30.14F
$$

ARZ009-017-025-026-028-172300-
NORTHEAST ARKANSAS

CITY           SKY/WX    TMP DP  RH WIND       PRES   REMARKS
CORNING        FAIR      68  41  37 SE6       30.22F
JONESBORO      SUNNY     67  41  38 SE7       30.21F
NEWPORT        MOSUNNY   68  37  31 S9        30.21F
WALNUT RIDGE   SUNNY     66  43  42 S7        30.21F
BLYTHEVILLE    SUNNY     67  40  37 VRB6      30.22F
$$

ARZ022-023-033-042-044-172300-
CENTRAL ARKANSAS

CITY           SKY/WX    TMP DP  RH WIND       PRES   REMARKS
LITTLE ROCK    PTSUNNY   68  37  32 SE3       30.19S
N LITTLE ROCK  PTSUNNY   68  43  39 E6        30.19S
JACKSONVILLE   MOSUNNY   69  39  32 VRB7      30.18F
SEARCY         MOSUNNY   69  39  33 VRB3      30.20F
HOT SPRINGS    PTSUNNY   71  38  29 VRB6      30.16F
RUSSELLVILLE   PTSUNNY   68  39  34 NE9       30.16F
CLINTON        FAIR      70  37  30 S3        30.19S
$$

ARZ036-172300-
EAST ARKANSAS

CITY           SKY/WX    TMP DP  RH WIND       PRES   REMARKS
WEST MEMPHIS   PTSUNNY   69  43  38 CALM      30.19F
$$

ARZ050-053-066-070-073-172300-
SOUTHWEST ARKANSAS

CITY           SKY/WX    TMP DP  RH WIND       PRES   REMARKS
ARKADELPHIA    FAIR      70  41  34 S3        30.17S
CAMDEN         CLOUDY    68  39  34 MISG      30.17F
TEXARKANA      MOSUNNY   66  41  40 NE8       30.15F
EL DORADO      CLOUDY    66  47  50 E8        30.16F
DE QUEEN       CLOUDY    66  43  43 SE7       30.14F
$$

ARZ056-057-069-172300-
SOUTHEAST ARKANSAS

CITY           SKY/WX    TMP DP  RH WIND       PRES   REMARKS
PINE BLUFF     CLOUDY    66  47  50 SE12      30.19S
STUTTGART      CLOUDY    68  43  40 S9        30.20S
MONTICELLO     CLOUDY    66  44  45 SE8       30.18S

$$





USA.gov is the U.S. government's official web portal to all federal, state and local government web resources and services.